Location: Anaheim
(33.8350°N, 117.9140°W)
Time: 19:03:22
(UTC-08:00)

OTV 5 (USA 277) - Visible Passes

Search period start: 18 November 2018 00:00
Search period end: 28 November 2018 00:00
Orbit: 339 x 348 km, 54.5° (Epoch: 14 November)

Date Brightness Start Highest point End Pass type
(mag) Time Alt. Az. Time Alt. Az. Time Alt. Az.
23 Nov ? 05:49:11 10° SSW 05:51:51 35° SE 05:54:32 10° ENE visible
25 Nov ? 05:01:40 12° SSW 05:04:00 33° SE 05:06:39 10° ENE visible
26 Nov ? 05:26:22 29° W 05:27:26 46° NW 05:30:13 10° NNE visible
27 Nov ? 05:50:25 13° NW 05:51:05 14° NW 05:52:44 10° N visible
